Temperature
18 18 18 18 18 18 18 18 18 18 18 17 17 17 17 17 17 17 17 17 17 17 17 17 17 17 17 17 17 17 17 16 16 16 16 16 16 16 16 16 16 16 16
18 18 18 18 18 18 18 18 18 18 17 17 17 17 17 17 17 17 17 17 17 17 17 17 17 17 17 17 17 17 17 16 16 16 16 16 16 16 16 16 16 16 15
18 18 18 18 18 18 18 18 17 17 17 17 17 17 17 17 17 17 17 17 17 17 17 17 17 17 17 16 17 17 16 16 16 16 16 16 16 16 16 16 16 15 15
18 18 18 18 18 18 18 18 18 17 17 17 17 17 17 17 17 17 17 17 17 17 17 17 17 17 17 16 16 16 16 16 16 16 16 16 16 16 15 15 15 15 15
18 18 18 18 18 18 18 17 17 17 17 17 17 17 17 17 17 17 17 17 17 17 17 17 17 17 17 17 16 17 16 16 16 16 16 16 16 16 15 15 15 15 15
18 18 18 18 18 18 17 17 17 17 17 17 17 17 17 17 17 17 17 17 17 17 17 17 17 17 17 17 17 16 16 16 16 16 16 16 16 16 15 15 15 15 15
18 18 18 18 18 17 17 17 17 17 17 17 17 17 17 17 17 17 17 17 17 17 17 17 17 17 17 17 17 17 16 16 16 16 16 16 16 16 15 15 15 15 15
18 18 18 18 17 17 17 17 17 17 17 17 17 17 17 17 17 17 17 17 17 17 17 17 17 17 17 17 17 16 16 16 16 16 16 16 16 16 15 15 15 15 15
18 18 18 17 17 17 17 17 17 17 17 17 17 17 17 17 17 17 17 17 17 17 17 17 17 17 17 17 17 16 16 16 16 16 16 16 16 16 15 15 15 15 15
18 18 17 17 17 17 17 17 17 17 17 17 17 17 17 17 16 17 17 17 17 17 17 17 17 17 17 17 17 17 16 16 16 16 16 16 16 16 15 15 15 15 15
18 18 17 17 17 17 17 17 17 17 17 17 17 17 17 17 17 16 16 17 17 17 17 17 17 17 17 16 16 16 16 16 16 16 16 16 16 16 16 15 15 15 15
18 18 17 17 17 17 17 17 17 17 17 17 17 17 17 17 17 17 16 16 17 17 17 17 17 17 17 16 16 16 16 16 16 16 16 16 16 16 16 15 15 15 15
18 18 18 18 17 17 17 17 17 17 17 17 17 17 17 17 17 16 16 16 16 17 17 17 17 17 16 16 16 16 16 16 16 16 16 16 16 16 16 15 15 15 14
18 18 18 17 17 17 17 17 17 17 17 17 17 17 17 17 17 16 16 16 16 16 16 17 17 17 16 16 16 16 16 16 16 16 16 16 16 15 15 15 15 14 14
18 18 18 17 17 17 17 17 17 17 17 17 17 17 17 17 16 16 16 16 16 16 16 16 16 16 16 16 16 16 16 16 16 16 15 15 15 15 15 15 15 14 14
18 18 18 18 17 17 17 17 17 17 17 17 16 16 16 16 16 16 16 16 16 16 16 16 16 16 16 16 16 16 16 15 15 15 15 15 15 15 15 15 14 14 14
18 18 18 17 17 17 17 17 17 17 17 16 16 16 16 16 16 16 16 16 16 16 16 16 16 16 16 16 16 16 16 15 15 15 15 15 15 15 15 15 14 14 14
18 17 17 17 17 17 17 17 17 17 17 17 16 16 16 16 16 16 16 16 16 16 15 15 16 16 16 16 15 15 15 15 15 15 15 15 15 15 14 14 14 14 14
18 17 17 17 17 17 17 17 17 17 17 16 16 16 16 16 16 16 16 16 16 15 15 15 15 15 15 15 15 15 15 15 15 15 15 15 15 14 14 14 14 14 14
18 17 17 17 17 17 17 17 17 17 17 16 16 16 16 16 16 16 16 16 15 15 15 15 15 15 15 15 15 15 15 15 15 15 15 15 14 14 14 14 14 14 13
18 18 17 17 17 17 17 17 17 17 16 16 16 16 16 16 16 16 16 16 15 15 15 15 15 15 15 15 15 15 15 15 15 15 14 14 14 14 14 14 14 14 13
18 17 17 17 17 17 17 17 17 17 17 16 16 16 16 16 16 16 15 15 15 15 15 15 15 15 15 15 15 14 14 14 14 14 14 14 14 14 14 14 14 13 13
17 17 17 17 17 17 17 17 17 16 16 16 16 16 16 16 16 16 15 15 15 15 15 15 15 15 15 15 14 14 14 14 14 14 14 14 14 14 14 14 13 13 13
17 17 17 17 17 17 17 17 16 16 16 16 16 16 16 16 15 15 15 15 15 15 15 15 15 15 14 14 14 14 14 14 14 13 13 13 13 13 13 13 13 13 13
17 17 17 17 17 17 17 16 16 16 16 16 16 15 15 15 15 15 15 15 15 15 14 14 14 14 14 14 14 13 13 13 13 13 13 13 13 13 13 13 13 13 13
17 17 16 16 16 16 16 16 16 15 15 15 15 15 15 15 15 15 15 14 14 15 14 14 14 14 14 14 13 13 13 13 13 12 13 13 13 12 12 13 13 13 12
Wind_Speed
1 1 2 2 2 2 2 2 2 3 4 4 4 4 4 4 4 4 4 7 8 7 7 7 7 7 7 7 7 8 9 8 8 8 8 9 9 9 8 8 8 8 8
2 2 2 2 2 2 2 2 3 3 3 3 3 3 3 4 4 4 4 6 7 7 7 7 7 7 8 8 8 8 8 9 8 8 8 8 8 8 8 8 7 7 7
2 2 2 1 1 2 3 3 3 3 3 2 2 2 2 2 3 3 4 4 4 6 7 7 7 8 8 9 8 8 9 9 9 8 8 8 8 8 7 6 6 6 6
3 3 2 1 2 2 3 3 2 3 2 2 1 1 1 1 2 3 3 4 4 5 6 7 6 7 8 9 9 9 9 8 8 8 7 7 7 7 7 7 7 6 6
3 3 2 2 2 2 2 2 2 2 2 1 1 0 1 1 2 3 3 4 4 5 5 6 7 8 8 9 9 9 9 9 9 9 8 8 7 7 7 7 7 6 6
3 4 2 2 3 2 2 2 2 2 2 1 0 1 1 2 2 2 3 3 4 5 6 6 6 7 8 8 8 8 9 9 9 9 9 9 9 8 7 7 7 7 6
3 3 2 2 2 2 2 2 2 2 1 1 1 1 2 1 2 2 2 3 4 4 5 5 5 5 5 7 7 8 8 8 8 9 9 8 8 8 7 7 7 8 7
3 3 3 3 3 2 2 2 2 2 1 1 1 0 2 2 2 1 1 2 2 2 3 4 5 5 5 4 5 6 7 8 8 8 9 9 9 9 8 8 7 7 8
2 3 3 3 3 3 2 2 2 2 1 1 1 2 1 1 1 1 1 1 2 2 3 3 4 5 5 4 4 5 7 8 8 9 9 9 9 9 9 9 8 9 9
1 2 3 3 2 2 2 3 3 2 2 2 1 1 2 2 1 2 2 1 2 3 3 3 4 4 5 4 5 6 8 8 8 8 8 9 9 9 10 9 9 8 8
1 1 2 3 3 3 3 3 2 3 2 2 2 1 1 1 2 2 2 2 2 2 3 3 3 4 5 5 5 6 7 8 8 8 9 9 9 9 9 9 9 9 8
1 1 1 2 3 3 3 3 3 3 3 3 3 2 2 2 2 2 3 2 3 3 2 2 3 3 4 5 6 6 6 7 7 8 8 9 9 8 8 8 8 8 7
1 1 1 1 2 3 3 3 3 3 3 4 3 3 3 3 2 2 2 2 2 2 2 2 2 3 4 4 5 6 6 7 7 7 7 8 8 8 8 7 7 7 7
2 1 1 1 1 1 2 2 2 3 2 3 3 3 3 3 2 2 2 2 1 2 2 3 1 3 4 4 5 5 5 7 7 7 7 7 8 8 7 7 7 6 6
2 1 1 1 1 1 1 1 2 2 2 2 3 3 3 2 2 3 3 3 3 3 3 3 2 2 4 4 5 5 5 6 7 7 7 7 7 7 7 7 6 6 6
1 1 1 1 1 2 2 1 2 2 2 2 2 2 3 2 2 2 3 3 3 3 3 2 3 2 3 4 5 5 6 6 7 7 8 8 7 7 8 8 7 7 7
2 2 3 2 2 2 2 2 2 2 2 3 3 3 4 3 3 2 2 3 3 3 4 3 2 2 3 4 4 5 6 6 6 9 9 9 9 9 9 9 9 9 9
3 3 3 3 3 3 3 3 3 3 3 4 4 4 4 3 3 3 3 4 4 4 4 5 3 2 3 4 4 4 5 5 6 8 10 10 10 10 10 10 10 10 10
3 3 3 4 4 4 3 3 4 4 4 5 5 5 5 4 4 4 4 4 4 4 4 4 4 3 2 2 2 2 3 4 5 6 8 9 9 10 10 10 10 10 10
3 3 4 5 5 4 4 4 4 5 5 5 5 5 5 5 6 6 5 5 5 4 4 4 4 3 3 2 2 2 3 3 4 4 5 7 8 9 10 11 11 11 11
4 4 3 4 4 4 4 5 5 5 5 5 6 6 7 7 8 6 5 5 5 5 4 4 5 3 3 2 3 3 4 3 4 3 3 4 5 6 7 10 11 12 12
3 2 3 4 4 5 5 5 4 5 5 5 6 6 6 7 8 9 9 8 7 6 6 5 5 5 6 5 4 4 4 3 3 3 3 4 4 5 6 8 10 12 13
3 3 4 4 6 7 7 6 6 5 5 6 6 6 5 5 6 5 6 7 8 9 8 6 7 7 6 6 5 5 5 5 5 3 3 4 4 5 6 8 10 12 13
3 4 5 5 6 7 6 6 6 5 5 6 6 6 6 6 5 5 5 5 5 5 6 6 7 7 7 5 6 6 6 5 4 3 4 4 3 4 5 6 9 12 13
4 5 5 6 6 7 7 6 5 4 5 6 6 6 6 7 8 6 5 5 6 5 5 6 6 6 7 6 5 3 3 3 4 4 4 4 3 3 3 4 6 10 12
5 4 5 5 6 7 7 7 5 4 5 5 5 5 7 8 8 6 6 6 6 6 5 4 4 5 5 5 5 6 5 5 3 3 4 4 3 2 2 3 3 4 6
Wind_Direction
122 94 79 81 89 103 112 113 126 137 138 141 151 156 160 165 177 190 201 201 199 202 205 207 212 211 209 208 210 209 208 209 212 216 221 223 220 216 213 215 221 223 220
133 118 92 84 94 110 114 113 117 126 135 140 154 159 168 176 186 197 203 206 206 207 211 215 221 220 215 213 215 216 215 214 215 218 224 224 220 215 215 218 221 219 221
139 127 120 115 128 127 112 104 98 98 113 127 142 161 184 196 196 205 209 213 218 217 217 219 222 223 221 221 218 217 218 218 215 217 223 224 219 214 213 215 219 221 225
148 141 138 135 132 121 115 110 113 111 110 118 128 183 195 204 217 220 222 222 222 226 227 230 230 231 232 233 229 224 221 215 210 212 213 215 215 214 211 212 214 219 226
153 148 141 143 128 114 110 126 115 126 126 123 130 232 238 221 224 223 225 229 226 224 227 233 239 241 240 239 234 230 221 214 209 211 214 213 210 209 211 212 215 219 222
141 140 135 135 129 119 110 109 113 108 126 142 100 326 286 253 230 225 232 235 229 226 227 230 239 245 245 243 238 231 223 218 211 212 215 213 209 204 207 212 213 216 220
140 141 146 140 138 141 153 144 133 127 130 135 86 345 322 278 246 238 235 235 239 238 228 228 235 242 249 247 243 236 229 222 217 216 216 213 207 207 208 211 216 219 224
158 154 159 161 153 145 149 156 156 147 175 152 151 96 339 343 339 282 242 237 244 247 246 241 233 235 241 243 237 231 231 229 228 226 224 219 214 213 214 216 219 222 225
163 159 162 169 165 167 187 199 186 181 206 216 179 169 171 258 315 319 268 252 257 251 254 251 239 237 234 233 237 233 233 233 232 231 225 222 220 217 215 221 224 225 224
172 179 174 175 187 197 205 213 200 199 190 222 226 209 205 192 214 298 315 299 275 259 257 252 244 238 230 226 228 230 235 237 238 236 228 224 224 221 219 220 223 228 229
26 184 185 184 197 213 225 230 216 199 201 211 213 203 189 199 210 225 277 303 303 275 260 253 246 242 237 230 230 235 237 240 242 239 232 224 223 222 219 220 224 228 227
1 332 209 203 208 215 222 226 223 216 217 219 220 207 198 201 203 207 239 270 282 284 270 250 244 240 239 236 239 244 242 239 239 237 233 223 221 221 223 225 227 228 227
305 295 259 235 236 232 225 224 226 233 224 221 224 228 222 221 205 194 207 248 272 289 295 262 240 234 235 235 242 251 247 239 236 234 228 221 220 221 224 226 230 233 234
252 267 243 241 254 248 233 215 225 237 225 228 234 227 228 231 208 198 190 187 257 286 275 268 264 231 234 232 239 246 246 241 233 226 223 222 225 223 221 222 221 224 230
249 243 238 259 281 280 261 226 239 244 226 231 237 233 234 233 212 214 200 190 201 249 266 248 250 242 230 231 237 239 241 240 232 230 229 228 229 225 220 218 219 218 220
249 247 252 255 281 295 287 259 260 262 243 248 240 240 247 239 226 223 214 214 211 217 248 249 243 254 238 240 239 235 239 239 234 235 235 234 230 225 220 217 218 217 217
231 237 244 247 258 272 273 262 264 261 251 261 258 244 250 234 227 230 223 220 221 213 243 265 249 251 227 239 242 239 240 236 239 237 238 235 233 230 225 222 219 218 217
235 232 237 246 254 259 256 246 254 256 250 257 259 253 256 246 230 233 231 233 231 223 229 256 262 245 238 240 239 243 242 240 243 244 241 238 236 232 228 224 221 220 218
248 243 239 248 257 257 251 246 239 241 244 249 253 251 254 249 249 244 238 240 240 237 226 235 256 243 246 244 245 253 250 244 248 245 239 237 235 233 229 224 221 221 220
249 251 244 248 251 252 251 249 244 239 244 249 251 250 250 245 248 246 245 242 239 240 235 237 249 252 246 236 221 242 260 249 256 246 239 235 230 228 227 226 225 223 222
253 255 252 255 256 253 257 249 245 247 246 252 256 253 251 250 250 245 246 242 234 235 240 244 248 249 241 224 228 225 243 264 257 234 243 241 230 229 230 229 227 224 221
257 258 258 260 261 262 262 250 244 252 254 255 260 264 259 256 260 253 247 241 231 230 234 236 245 245 249 238 232 230 236 245 258 220 223 250 229 234 235 231 225 221 219
250 262 265 268 266 267 265 258 251 249 255 260 261 262 268 268 258 260 250 246 242 238 228 226 239 246 247 238 227 235 233 236 245 221 208 254 238 244 241 235 225 222 219
249 255 261 267 271 276 272 261 256 254 262 265 264 260 262 270 265 256 249 251 251 248 239 234 239 248 247 241 224 227 233 246 255 229 203 239 243 248 254 243 227 220 220
249 256 260 259 264 274 273 267 261 258 263 268 269 268 264 268 270 257 243 248 255 261 251 239 242 251 250 240 224 213 221 228 252 246 206 222 234 247 257 248 235 220 218
247 258 264 260 259 269 272 265 250 249 262 272 276 274 267 267 268 253 239 242 251 262 266 273 268 268 260 250 227 218 224 233 245 251 210 209 227 217 253 251 243 231 220
Height
1522 1523 1523 1523 1524 1525 1525 1526 1527 1528 1530 1532 1534 1535 1537 1538 1540 1541 1542 1542 1543 1544 1545 1545 1546 1546 1547 1548 1549 1550 1551 1552 1553 1554 1554 1555 1556 1556 1557 1557 1558 1559 1560
1523 1523 1524 1524 1525 1525 1526 1527 1527 1528 1530 1532 1533 1535 1537 1538 1539 1540 1541 1542 1542 1543 1544 1544 1545 1545 1546 1547 1547 1548 1549 1550 1551 1552 1552 1553 1553 1554 1555 1556 1556 1556 1557
1524 1524 1525 1525 1526 1526 1527 1528 1528 1529 1530 1532 1533 1535 1536 1537 1538 1539 1540 1541 1541 1542 1543 1543 1544 1544 1545 1546 1546 1547 1548 1549 1549 1550 1551 1551 1551 1552 1553 1553 1554 1554 1554
1525 1525 1526 1526 1527 1527 1528 1529 1529 1530 1531 1532 1534 1535 1536 1536 1537 1538 1539 1539 1540 1541 1542 1542 1543 1543 1544 1544 1545 1545 1546 1547 1547 1548 1549 1549 1549 1550 1550 1551 1551 1552 1552
1526 1526 1527 1527 1528 1528 1529 1529 1530 1531 1531 1532 1534 1535 1535 1536 1536 1536 1537 1538 1539 1539 1540 1541 1541 1541 1542 1543 1543 1544 1544 1545 1545 1546 1546 1546 1547 1547 1548 1549 1549 1549 1550
1527 1527 1527 1528 1528 1529 1530 1530 1531 1532 1532 1533 1534 1534 1535 1535 1535 1536 1536 1537 1537 1538 1539 1539 1539 1540 1540 1541 1541 1542 1542 1543 1543 1544 1544 1544 1545 1545 1546 1546 1547 1547 1547
1527 1528 1528 1528 1529 1530 1530 1531 1531 1532 1533 1534 1534 1534 1534 1534 1534 1535 1535 1535 1536 1537 1537 1537 1538 1538 1538 1539 1539 1540 1540 1541 1541 1542 1542 1543 1543 1543 1544 1544 1544 1545 1545
1528 1528 1528 1529 1529 1530 1530 1531 1532 1532 1533 1534 1534 1533 1533 1534 1533 1533 1534 1534 1534 1535 1536 1536 1536 1536 1536 1537 1537 1538 1538 1539 1539 1539 1540 1540 1541 1541 1541 1542 1542 1542 1542
1529 1529 1529 1529 1529 1530 1531 1531 1532 1532 1533 1534 1534 1534 1534 1533 1533 1533 1533 1533 1533 1534 1534 1534 1534 1535 1535 1535 1535 1536 1537 1537 1537 1537 1538 1538 1538 1538 1539 1539 1540 1540 1540
1529 1529 1529 1529 1529 1530 1531 1531 1531 1532 1533 1533 1533 1533 1533 1533 1533 1532 1532 1532 1532 1532 1532 1532 1533 1533 1533 1533 1534 1534 1534 1535 1535 1535 1535 1535 1536 1536 1536 1537 1537 1537 1537
1529 1529 1529 1530 1530 1530 1531 1531 1530 1531 1531 1532 1532 1532 1532 1532 1532 1532 1530 1531 1531 1531 1531 1531 1531 1531 1531 1531 1531 1531 1531 1532 1532 1533 1533 1533 1533 1533 1533 1534 1534 1534 1534
1528 1529 1529 1529 1529 1529 1529 1529 1530 1530 1530 1530 1530 1530 1530 1530 1530 1530 1529 1528 1529 1529 1529 1529 1529 1529 1529 1529 1529 1529 1529 1529 1529 1529 1530 1530 1530 1531 1531 1531 1531 1532 1532
1528 1528 1528 1528 1528 1528 1528 1528 1528 1528 1528 1528 1528 1528 1529 1529 1528 1528 1528 1527 1527 1527 1527 1527 1527 1527 1527 1527 1526 1526 1526 1527 1526 1526 1527 1527 1527 1527 1528 1528 1529 1529 1529
1527 1527 1527 1527 1527 1527 1526 1526 1526 1526 1526 1526 1526 1526 1526 1526 1526 1526 1526 1525 1525 1525 1524 1525 1525 1525 1525 1524 1524 1524 1524 1524 1523 1523 1523 1524 1524 1524 1524 1525 1525 1526 1526
1526 1526 1526 1526 1526 1525 1525 1524 1524 1524 1524 1524 1524 1523 1523 1523 1523 1524 1524 1524 1524 1523 1522 1522 1522 1522 1522 1522 1522 1521 1521 1521 1521 1520 1520 1520 1520 1521 1521 1521 1522 1522 1523
1525 1525 1525 1524 1524 1524 1523 1523 1522 1521 1521 1521 1521 1521 1521 1521 1521 1521 1521 1521 1521 1521 1520 1519 1520 1520 1520 1519 1519 1518 1518 1518 1517 1517 1517 1517 1517 1517 1517 1518 1518 1519 1519
1524 1523 1523 1523 1523 1522 1522 1521 1520 1519 1519 1519 1519 1518 1518 1518 1518 1517 1518 1518 1518 1518 1517 1516 1517 1517 1516 1516 1516 1515 1515 1514 1514 1514 1514 1514 1514 1514 1513 1514 1514 1515 1515
1522 1522 1521 1521 1520 1520 1520 1519 1518 1518 1517 1516 1516 1516 1515 1515 1515 1514 1514 1514 1514 1514 1513 1512 1512 1513 1512 1512 1512 1511 1511 1510 1510 1510 1510 1510 1510 1510 1510 1510 1510 1511 1511
1520 1519 1519 1519 1518 1518 1517 1517 1516 1515 1515 1514 1513 1513 1512 1512 1511 1511 1510 1510 1510 1510 1509 1509 1508 1508 1508 1508 1508 1507 1507 1506 1506 1506 1505 1505 1506 1506 1506 1506 1507 1507 1507
1517 1517 1517 1516 1516 1515 1515 1514 1514 1513 1512 1511 1511 1510 1509 1509 1508 1508 1507 1506 1506 1506 1505 1505 1504 1504 1504 1504 1504 1503 1502 1502 1502 1502 1501 1501 1501 1501 1502 1502 1502 1503 1503
1515 1514 1514 1514 1513 1513 1512 1511 1511 1510 1509 1508 1508 1507 1506 1505 1504 1504 1503 1502 1502 1501 1501 1500 1500 1500 1500 1500 1499 1499 1498 1498 1497 1497 1497 1497 1497 1497 1497 1497 1498 1498 1498
1512 1511 1511 1511 1510 1509 1509 1508 1507 1506 1506 1505 1504 1503 1502 1501 1500 1500 1499 1498 1498 1497 1496 1496 1496 1495 1495 1495 1495 1494 1494 1493 1492 1493 1493 1492 1492 1492 1492 1493 1493 1493 1494
1508 1508 1508 1507 1507 1506 1505 1505 1504 1503 1502 1501 1500 1499 1498 1497 1496 1495 1494 1494 1493 1493 1492 1492 1491 1490 1490 1490 1490 1489 1489 1488 1488 1488 1488 1487 1488 1487 1488 1488 1488 1489 1489
1505 1504 1504 1504 1503 1502 1502 1501 1500 1499 1497 1496 1496 1495 1494 1493 1493 1491 1490 1489 1489 1488 1488 1487 1486 1486 1485 1485 1485 1485 1484 1483 1483 1483 1483 1482 1482 1482 1483 1483 1483 1484 1484
1501 1501 1500 1500 1499 1498 1497 1497 1496 1494 1493 1492 1492 1491 1490 1489 1488 1487 1486 1484 1484 1484 1484 1483 1482 1481 1481 1481 1480 1480 1479 1479 1477 1478 1478 1478 1476 1477 1477 1477 1478 1478 1479
1497 1497 1496 1496 1495 1494 1493 1493 1492 1491 1489 1488 1487 1486 1485 1485 1484 1483 1481 1480 1479 1479 1479 1478 1477 1477 1476 1476 1476 1476 1475 1475 1473 1473 1473 1473 1472 1472 1471 1471 1472 1473 1473